FENGYUN 1C DEB

Satellite information

Favourite Embed

Satellite Type and Status

DEBRISIN ORBIT

Key statistics

Satellite FENGYUN 1C DEB at a glance.

Uptime

9554

Days in orbit

Revolutions

≈ 14.3

Per day

Orbit

SSO

Sun Synchronous Orbit

Inclination

99.1

Latest

Satellite identification and parameters

Extended collection of information and parameters for FENGYUN 1C DEB.

Object identification

Identified? True

Debris? True

Object name: FENGYUN 1C DEB

International designator: 1999-025PZ

Object number (NORAD): 30072

Object ID (CCSDS): 30072

Country: PEOPLES REPUBLIC OF CHINA (PRC)

Current information (Y/N): Y

RCS size: SMALL

Orbital parameters

Period: 100.398 minutes

Inclination: 99.0777 deg

SMA: 7155.576 km

Apoapsis: 821.175 km

Periapsis: 733.708 km

RAAN: 325.1873 deg

Eccentricy: 0.0061118

Argument of periapsis: 28.3664 deg

Mean anomaly: 332.0825 deg

Mean motion: 14.34286237 rev/day

Mean motion (dot): 0.00004975 rev/day2

B* drag term: 0.0017506 1/REarth

Two-line elements (TLE)

Creation date: July 4, 2025, 6:39 p.m.

Reference frame: TEME

Reference center: EARTH

Epoch: July 4, 2025, 8:59 a.m. UTC

TLE line 0: 0 FENGYUN 1C DEB

TLE line 1: 1 30072U 99025PZ 25185.37473689 .00004975 00000-0 17506-2 0 9991

TLE line 2: 2 30072 99.0777 325.1873 0061118 28.3664 332.0825 14.34286237948552

Live tracking on map

Real-time ground track for satellite FENGYUN 1C DEB.

In-orbit conjunctions

A list of the most updated potential collisions computed for object FENGYUN 1C DEB.

Target Orbit TCA Probability of collision Miss distance Type
CZ-6A DEB LEO 2025-01-08 22:26:34 0.0003572463 231.0 (m) DEBRIS
CBERS 2B SSO 2024-10-24 10:56:12 0.0001836273 631.0 (m) PAYLOAD
ORBCOMM FM 28 LEO 2024-08-20 02:38:43 0.0003835984 177.0 (m) PAYLOAD

Associated space launch

Chinese polar orbiting meteorological satellite

FENGYUN 1C DEB was lifted into orbit during the mission ‘Long March 4B | Feng Yun 1C’, on board a Long March 4B space rocket.

The launch took place on May 10, 1999, 1:33 a.m. from Launch Complex 7.

For more information about the launch, click the button.

Launch to space Long March 4B | Feng Yun 1C
Long March 4B | Feng Yun 1C

Agency: N/A

Status: Launch Successful

Launch date: May 10, 1999, 1:33 a.m. UTC

Rocket: Long March 4B

Launch pad: Launch Complex 7

Location: Taiyuan Satellite Launch Center, People's Republic of China

...

Latest news about this satellite

There are no fresh news available about this satellite. Check back as we update our databases every day.


Newsletter sign-up

Weekly statistics, charts and insights to help you stay on top of the space industry.